Weather History for Roswell, NM

Change the Weather History Date:

Tuesday, June 18, 2013

  Actual Average Record
Temperature  
Mean Temperature 79 °F 79 °F  
Max Temperature 94 °F 94 °F 108 °F (2012)
Min Temperature 64 °F 64 °F 51 °F (1912)
Degree Days  
Heating Degree Days 0 0  
Month to date heating degree days 0 0  
Since 1 June heating degree days 0 0  
Since 1 July heating degree days 2984 3287  
Cooling Degree Days 14 14  
Month to date cooling degree days 284 219  
Year to date cooling degree days 607 444  
Since 1 June cooling degree days 284 219  
Growing Degree Days 28 (Base 50)    
Moisture  
Dew Point 56 °F    
Average Humidity 53    
Maximum Humidity 78    
Minimum Humidity 28    
Precipitation  
Precipitation 0.00 in 0.06 in 0.94 in (1986)
Month to date precipitation 0.12 0.88  
Year to date precipitation 0.59 4.05  
Sea Level Pressure  
Sea Level Pressure 29.86 in    
Wind  
Wind Speed 10 mph (SSE)    
Max Wind Speed 23 mph    
Max Gust Speed 31 mph    
Visibility 10 miles    
Events      
T = Trace of Precipitation, MM = Missing Value Source: NWS Daily Summary

Daily Weather History Graph

Daily Weather History Graph

Search for Another Location

Airport:

Trip Planner

Search our weather history database for the weather conditions in past years. The results will help you decide how hot, cold, wet, or windy it might be!

Date:

Astronomy

Jun. 18, 2013 Rise Set
Actual Time 5:48 AM MDT 8:10 PM MDT
Civil Twilight 5:19 AM MDT 8:38 PM MDT
Nautical Twilight 4:44 AM MDT 9:14 PM MDT
Astronomical Twilight 4:05 AM MDT 9:53 PM MDT
Moon 3:08 PM MDT (6/18) 1:45 AM MDT (6/18)
Length of Visible Light 15h 19m
Length of Day
14h 21m
Waxing Gibbous, 71% of the Moon is Illuminated
Jun 18
Waxing Gibbous
Jun 23
Full
Jun 29
Last Quarter
Jul 8
New
Jul 15
First Quarter

Hourly Weather History & Observations

Time (MDT) Temp. Heat Index Dew Point Humidity Pressure Visibility Wind Dir Wind Speed Gust Speed Precip Events Conditions
12:51 AM 72.0 °F - 55.0 °F 55% 29.90 in 10.0 mi ESE 16.1 mph 23.0 mph N/A   Clear
1:51 AM 70.0 °F - 57.9 °F 65% 29.91 in 10.0 mi ESE 13.8 mph - N/A   Clear
2:51 AM 68.0 °F - 57.9 °F 70% 29.89 in 10.0 mi SSW 8.1 mph - N/A   Clear
3:51 AM 69.1 °F - 57.9 °F 68% 29.91 in 10.0 mi SW 8.1 mph - N/A   Clear
4:51 AM 66.9 °F - 57.0 °F 70% 29.94 in 10.0 mi SSW 3.5 mph - N/A   Clear
5:51 AM 64.9 °F - 57.0 °F 75% 29.96 in 10.0 mi Calm Calm - N/A   Clear
6:51 AM 68.0 °F - 57.9 °F 70% 29.98 in 10.0 mi Calm Calm - N/A   Clear
7:51 AM 70.0 °F - 57.9 °F 65% 30.00 in 10.0 mi Calm Calm - N/A   Clear
8:51 AM 73.0 °F - 57.9 °F 59% 29.99 in 10.0 mi NNE 3.5 mph - N/A   Clear
9:51 AM 77.0 °F - 55.0 °F 47% 29.97 in 10.0 mi Variable 5.8 mph - N/A   Clear
10:51 AM 79.0 °F - 55.0 °F 44% 29.94 in 10.0 mi South 5.8 mph 19.6 mph N/A   Clear
11:51 AM 82.9 °F 82.0 °F 55.0 °F 38% 29.92 in 10.0 mi South 8.1 mph 18.4 mph N/A   Clear
12:51 PM 86.0 °F 84.5 °F 55.0 °F 35% 29.89 in 10.0 mi SSW 12.7 mph 18.4 mph N/A   Clear
1:51 PM 88.0 °F 85.9 °F 54.0 °F 31% 29.86 in 10.0 mi South 6.9 mph 21.9 mph N/A   Clear
2:51 PM 90.0 °F 87.7 °F 54.0 °F 29% 29.82 in 10.0 mi SSE 11.5 mph - N/A   Clear
3:51 PM 91.9 °F 89.5 °F 53.1 °F 27% 29.79 in 10.0 mi SSE 12.7 mph 21.9 mph N/A   Clear
4:51 PM 91.9 °F 90.0 °F 55.0 °F 29% 29.77 in 10.0 mi South 17.3 mph 23.0 mph N/A   Clear
5:51 PM 91.0 °F 88.7 °F 54.0 °F 28% 29.75 in 10.0 mi South 13.8 mph 26.5 mph N/A   Clear
6:51 PM 91.0 °F 88.7 °F 54.0 °F 28% 29.73 in 10.0 mi SSE 16.1 mph - N/A   Clear
7:51 PM 88.0 °F 86.5 °F 55.9 °F 34% 29.74 in 10.0 mi South 18.4 mph 26.5 mph N/A   Clear
8:51 PM 84.9 °F 84.2 °F 57.9 °F 40% 29.74 in 10.0 mi SSE 15.0 mph - N/A   Clear
9:51 PM 82.9 °F 82.6 °F 57.9 °F 42% 29.74 in 10.0 mi SE 11.5 mph - N/A   Clear
10:51 PM 82.0 °F 82.1 °F 59.0 °F 45% 29.74 in 10.0 mi SSE 15.0 mph - N/A   Clear
11:51 PM 80.1 °F 80.6 °F 57.9 °F 47% 29.74 in 10.0 mi SSE 11.5 mph - N/A   Clear